Time,TemperatureF,DewpointF,PressureIn,WindDirection,WindDirectionDegrees,WindSpeedMPH,WindSpeedGustMPH,Humidity,HourlyPrecipIn,Conditions,Clouds,dailyrainin,SoftwareType,DateUTC
2013-02-15 00:00:00,32.4,24.0,29.99,SW,226,0.0,0.0,71,0.00,,,0.00,Wunderground v.1.13,2013-02-15 05:00:00,
2013-02-15 00:05:00,32.3,23.9,29.99,SW,224,0.0,1.0,71,0.00,,,0.00,Wunderground v.1.13,2013-02-15 05:05:00,
2013-02-15 00:10:00,32.2,23.8,29.99,SW,224,1.0,1.0,71,0.00,,,0.00,Wunderground v.1.13,2013-02-15 05:10:00,
2013-02-15 00:15:00,32.1,24.1,29.99,SW,227,1.0,1.0,72,0.00,,,0.00,Wunderground v.1.13,2013-02-15 05:15:00,
2013-02-15 00:20:00,32.0,24.0,30.00,SW,227,0.0,0.0,72,0.00,,,0.00,Wunderground v.1.13,2013-02-15 05:20:00,
2013-02-15 00:25:00,31.9,23.9,29.99,SW,227,0.0,0.0,72,0.00,,,0.00,Wunderground v.1.13,2013-02-15 05:25:00,
2013-02-15 00:30:00,31.7,24.0,29.99,SW,227,0.0,0.0,73,0.00,,,0.00,Wunderground v.1.13,2013-02-15 05:30:00,
2013-02-15 00:35:00,31.7,24.0,29.99,SW,226,0.0,2.0,73,0.00,,,0.00,Wunderground v.1.13,2013-02-15 05:35:00,
2013-02-15 00:45:00,31.4,24.1,29.99,SW,227,1.0,1.0,74,0.00,,,0.00,Wunderground v.1.13,2013-02-15 05:45:00,
2013-02-15 00:50:00,31.3,24.0,29.99,SW,227,0.0,0.0,74,0.00,,,0.00,Wunderground v.1.13,2013-02-15 05:50:00,
2013-02-15 00:55:00,31.2,24.2,29.99,SW,226,1.0,1.0,75,0.00,,,0.00,Wunderground v.1.13,2013-02-15 05:55:00,
2013-02-15 01:05:00,31.1,24.1,29.99,SW,225,1.0,5.0,75,0.00,,,0.00,Wunderground v.1.13,2013-02-15 06:05:00,
2013-02-15 01:15:00,31.0,24.3,30.00,SW,229,1.0,1.0,76,0.00,,,0.00,Wunderground v.1.13,2013-02-15 06:15:00,
2013-02-15 01:20:00,31.0,24.3,30.00,SW,229,0.0,4.0,76,0.00,,,0.00,Wunderground v.1.13,2013-02-15 06:20:00,
2013-02-15 01:25:00,30.9,24.5,30.00,SW,229,1.0,1.0,77,0.00,,,0.00,Wunderground v.1.13,2013-02-15 06:25:00,
2013-02-15 01:35:00,30.8,24.4,30.00,SW,230,1.0,4.0,77,0.00,,,0.00,Wunderground v.1.13,2013-02-15 06:35:00,
2013-02-15 01:40:00,30.8,24.7,30.00,SW,229,1.0,1.0,78,0.00,,,0.00,Wunderground v.1.13,2013-02-15 06:40:00,
2013-02-15 01:45:00,30.8,24.7,30.00,SW,230,1.0,3.0,78,0.00,,,0.00,Wunderground v.1.13,2013-02-15 06:45:00,
2013-02-15 01:55:00,30.7,25.0,30.00,SW,223,1.0,4.0,79,0.00,,,0.00,Wunderground v.1.13,2013-02-15 06:55:00,
2013-02-15 02:00:00,30.7,25.0,29.99,WSW,248,2.0,2.0,79,0.00,,,0.00,Wunderground v.1.13,2013-02-15 07:00:00,
2013-02-15 02:05:00,30.6,25.2,29.99,WSW,238,2.0,2.0,80,0.00,,,0.00,Wunderground v.1.13,2013-02-15 07:05:00,
2013-02-15 02:10:00,30.6,25.5,29.99,SW,232,2.0,2.0,81,0.00,,,0.00,Wunderground v.1.13,2013-02-15 07:10:00,
2013-02-15 02:20:00,30.5,25.4,29.99,SSW,204,2.0,5.0,81,0.00,,,0.00,Wunderground v.1.13,2013-02-15 07:20:00,
2013-02-15 02:25:00,30.4,25.6,29.99,SW,230,2.0,5.0,82,0.00,,,0.00,Wunderground v.1.13,2013-02-15 07:25:00,
2013-02-15 02:30:00,30.4,25.6,29.99,WSW,248,2.0,5.0,82,0.00,,,0.00,Wunderground v.1.13,2013-02-15 07:30:00,
2013-02-15 02:40:00,30.2,25.7,29.99,SW,231,2.0,5.0,83,0.00,,,0.00,Wunderground v.1.13,2013-02-15 07:40:00,
2013-02-15 02:45:00,30.2,25.7,30.00,SW,232,2.0,2.0,83,0.00,,,0.00,Wunderground v.1.13,2013-02-15 07:45:00,
2013-02-15 02:50:00,30.1,25.6,30.00,SW,235,2.0,2.0,83,0.00,,,0.00,Wunderground v.1.13,2013-02-15 07:50:00,
2013-02-15 03:00:00,30.0,25.8,29.99,SW,235,1.0,1.0,84,0.00,,,0.00,Wunderground v.1.13,2013-02-15 08:00:00,
2013-02-15 03:05:00,29.9,25.7,29.99,SW,235,1.0,5.0,84,0.00,,,0.00,Wunderground v.1.13,2013-02-15 08:05:00,
2013-02-15 03:10:00,29.8,25.6,29.99,SW,234,1.0,5.0,84,0.00,,,0.00,Wunderground v.1.13,2013-02-15 08:10:00,
2013-02-15 03:20:00,29.7,25.7,29.99,SW,225,2.0,2.0,85,0.00,,,0.00,Wunderground v.1.13,2013-02-15 08:20:00,
2013-02-15 03:25:00,29.6,25.6,29.99,SW,225,1.0,5.0,85,0.00,,,0.00,Wunderground v.1.13,2013-02-15 08:25:00,
2013-02-15 03:30:00,29.5,25.8,29.99,SW,225,1.0,5.0,86,0.00,,,0.00,Wunderground v.1.13,2013-02-15 08:30:00,
2013-02-15 03:35:00,29.4,25.7,29.99,SW,222,1.0,5.0,86,0.00,,,0.00,Wunderground v.1.13,2013-02-15 08:35:00,
2013-02-15 03:45:00,29.4,26.0,29.98,SW,222,1.0,1.0,87,0.00,,,0.00,Wunderground v.1.13,2013-02-15 08:45:00,
2013-02-15 03:50:00,29.4,26.0,29.98,SW,223,1.0,1.0,87,0.00,,,0.00,Wunderground v.1.13,2013-02-15 08:50:00,
2013-02-15 03:55:00,29.3,26.2,29.99,SW,223,1.0,1.0,88,0.00,,,0.00,Wunderground v.1.13,2013-02-15 08:55:00,
2013-02-15 04:00:00,29.2,25.8,29.99,SW,230,1.0,5.0,87,0.00,,,0.00,Wunderground v.1.13,2013-02-15 09:00:00,
2013-02-15 04:10:00,29.0,25.9,29.99,SW,219,4.0,4.0,88,0.00,,,0.00,Wunderground v.1.13,2013-02-15 09:10:00,
2013-02-15 04:15:00,28.8,26.0,29.99,WSW,238,5.0,5.0,89,0.00,,,0.00,Wunderground v.1.13,2013-02-15 09:15:00,
2013-02-15 04:25:00,28.7,25.9,29.99,WSW,248,4.0,4.0,89,0.00,,,0.00,Wunderground v.1.13,2013-02-15 09:25:00,
2013-02-15 04:30:00,28.6,26.0,29.99,SW,232,4.0,4.0,90,0.00,,,0.00,Wunderground v.1.13,2013-02-15 09:30:00,
2013-02-15 04:35:00,28.5,25.9,29.99,WSW,245,4.0,4.0,90,0.00,,,0.00,Wunderground v.1.13,2013-02-15 09:35:00,
2013-02-15 04:40:00,28.5,25.9,29.99,WSW,240,3.0,3.0,90,0.00,,,0.00,Wunderground v.1.13,2013-02-15 09:40:00,
2013-02-15 04:50:00,28.5,26.2,29.99,WSW,246,2.0,5.0,91,0.00,,,0.00,Wunderground v.1.13,2013-02-15 09:50:00,
2013-02-15 04:55:00,28.5,26.2,29.99,SW,236,3.0,3.0,91,0.00,,,0.00,Wunderground v.1.13,2013-02-15 09:55:00,
2013-02-15 05:00:00,28.6,26.3,29.99,WSW,237,2.0,5.0,91,0.00,,,0.00,Wunderground v.1.13,2013-02-15 10:00:00,
2013-02-15 05:10:00,28.8,26.8,29.99,SW,218,1.0,5.0,92,0.00,,,0.00,Wunderground v.1.13,2013-02-15 10:10:00,
2013-02-15 05:15:00,28.8,26.8,29.99,SW,215,1.0,1.0,92,0.00,,,0.00,Wunderground v.1.13,2013-02-15 10:15:00,
2013-02-15 05:20:00,28.8,26.8,29.99,SW,215,1.0,1.0,92,0.00,,,0.00,Wunderground v.1.13,2013-02-15 10:20:00,
2013-02-15 05:25:00,29.0,27.0,29.99,SW,215,1.0,5.0,92,0.00,,,0.00,Wunderground v.1.13,2013-02-15 10:25:00,
2013-02-15 05:35:00,29.2,27.4,29.99,SW,219,2.0,2.0,93,0.00,,,0.00,Wunderground v.1.13,2013-02-15 10:35:00,
2013-02-15 05:40:00,29.3,27.5,29.99,SW,230,2.0,5.0,93,0.00,,,0.00,Wunderground v.1.13,2013-02-15 10:40:00,
2013-02-15 05:45:00,29.4,27.6,29.99,SW,230,2.0,2.0,93,0.00,,,0.00,Wunderground v.1.13,2013-02-15 10:45:00,
2013-02-15 05:55:00,29.5,27.7,29.99,SW,229,1.0,5.0,93,0.00,,,0.00,Wunderground v.1.13,2013-02-15 10:55:00,
2013-02-15 06:00:00,29.6,27.8,29.99,SSW,209,2.0,2.0,93,0.00,,,0.00,Wunderground v.1.13,2013-02-15 11:00:00,
2013-02-15 06:05:00,29.6,27.8,29.99,SSW,205,1.0,5.0,93,0.00,,,0.00,Wunderground v.1.13,2013-02-15 11:05:00,
2013-02-15 06:15:00,29.8,28.0,30.00,SW,223,1.0,5.0,93,0.00,,,0.00,Wunderground v.1.13,2013-02-15 11:15:00,
2013-02-15 06:20:00,29.9,28.1,30.00,SW,232,2.0,2.0,93,0.00,,,0.00,Wunderground v.1.13,2013-02-15 11:20:00,
2013-02-15 06:25:00,30.0,28.2,30.00,SSW,192,2.0,5.0,93,0.00,,,0.00,Wunderground v.1.13,2013-02-15 11:25:00,
2013-02-15 06:30:00,30.1,28.6,30.00,SSW,194,2.0,5.0,94,0.00,,,0.00,Wunderground v.1.13,2013-02-15 11:30:00,
2013-02-15 06:40:00,30.3,28.8,30.00,WSW,238,3.0,3.0,94,0.00,,,0.00,Wunderground v.1.13,2013-02-15 11:40:00,
2013-02-15 06:45:00,30.3,28.8,30.00,WSW,238,2.0,2.0,94,0.00,,,0.00,Wunderground v.1.13,2013-02-15 11:45:00,
2013-02-15 06:50:00,30.3,28.8,30.00,West,265,1.0,1.0,94,0.00,,,0.00,Wunderground v.1.13,2013-02-15 11:50:00,
2013-02-15 07:00:00,30.5,29.0,29.99,SW,229,3.0,5.0,94,0.00,,,0.00,Wunderground v.1.13,2013-02-15 12:00:00,
2013-02-15 07:05:00,30.5,29.0,29.99,WSW,246,3.0,3.0,94,0.00,,,0.00,Wunderground v.1.13,2013-02-15 12:05:00,
2013-02-15 07:10:00,30.6,29.1,29.99,WSW,238,3.0,3.0,94,0.00,,,0.00,Wunderground v.1.13,2013-02-15 12:10:00,
2013-02-15 07:20:00,30.7,29.2,29.99,SSW,213,2.0,2.0,94,0.00,,,0.00,Wunderground v.1.13,2013-02-15 12:20:00,
2013-02-15 07:25:00,30.8,29.3,29.99,SW,220,2.0,5.0,94,0.00,,,0.00,Wunderground v.1.13,2013-02-15 12:25:00,
2013-02-15 07:30:00,30.8,29.3,29.99,SW,218,2.0,5.0,94,0.00,,,0.00,Wunderground v.1.13,2013-02-15 12:30:00,
2013-02-15 07:40:00,30.9,29.4,29.99,SW,219,3.0,3.0,94,0.00,,,0.00,Wunderground v.1.13,2013-02-15 12:40:00,
2013-02-15 07:45:00,31.0,29.5,29.99,WSW,245,3.0,3.0,94,0.00,,,0.00,Wunderground v.1.13,2013-02-15 12:45:00,
2013-02-15 07:50:00,31.1,29.6,29.99,SW,227,2.0,5.0,94,0.00,,,0.00,Wunderground v.1.13,2013-02-15 12:50:00,
2013-02-15 07:55:00,31.2,29.7,29.99,WSW,246,3.0,3.0,94,0.00,,,0.00,Wunderground v.1.13,2013-02-15 12:55:00,
2013-02-15 08:05:00,31.4,29.9,29.99,SSW,205,3.0,6.0,94,0.00,,,0.00,Wunderground v.1.13,2013-02-15 13:05:00,
2013-02-15 08:10:00,31.6,30.1,29.99,SSW,211,4.0,4.0,94,0.00,,,0.00,Wunderground v.1.13,2013-02-15 13:10:00,
2013-02-15 08:20:00,32.1,30.6,30.00,SW,232,3.0,5.0,94,0.00,,,0.00,Wunderground v.1.13,2013-02-15 13:20:00,
2013-02-15 08:25:00,32.3,30.8,30.00,South,184,4.0,4.0,94,0.00,,,0.00,Wunderground v.1.13,2013-02-15 13:25:00,
2013-02-15 08:30:00,32.6,31.1,30.00,West,259,4.0,4.0,94,0.00,,,0.00,Wunderground v.1.13,2013-02-15 13:30:00,
2013-02-15 08:35:00,32.8,31.3,30.00,SW,235,3.0,7.0,94,0.00,,,0.00,Wunderground v.1.13,2013-02-15 13:35:00,
2013-02-15 08:45:00,33.4,31.6,30.00,WSW,253,4.0,4.0,93,0.00,,,0.00,Wunderground v.1.13,2013-02-15 13:45:00,
2013-02-15 08:50:00,33.8,31.7,30.00,West,261,4.0,9.0,92,0.00,,,0.00,Wunderground v.1.13,2013-02-15 13:50:00,
2013-02-15 08:55:00,34.1,31.7,30.00,SW,221,4.0,4.0,91,0.00,,,0.00,Wunderground v.1.13,2013-02-15 13:55:00,
2013-02-15 09:00:00,34.4,31.8,30.00,West,259,5.0,5.0,90,0.00,,,0.00,Wunderground v.1.13,2013-02-15 14:00:00,
2013-02-15 09:10:00,35.1,32.2,30.00,West,267,3.0,3.0,89,0.00,,,0.00,Wunderground v.1.13,2013-02-15 14:10:00,
2013-02-15 09:15:00,35.5,32.0,30.00,WSW,244,5.0,5.0,87,0.00,,,0.00,Wunderground v.1.13,2013-02-15 14:15:00,
2013-02-15 09:20:00,36.1,32.0,30.00,SW,223,4.0,4.0,85,0.00,,,0.00,Wunderground v.1.13,2013-02-15 14:20:00,
2013-02-15 09:30:00,37.8,32.2,30.00,SW,226,4.0,4.0,80,0.00,,,0.00,Wunderground v.1.13,2013-02-15 14:30:00,
2013-02-15 09:35:00,38.6,32.3,30.00,WSW,240,3.0,3.0,78,0.00,,,0.00,Wunderground v.1.13,2013-02-15 14:35:00,
2013-02-15 09:40:00,39.2,32.3,30.00,WSW,248,3.0,5.0,76,0.00,,,0.00,Wunderground v.1.13,2013-02-15 14:40:00,
2013-02-15 09:50:00,40.0,32.0,30.00,WSW,242,3.0,5.0,73,0.00,,,0.00,Wunderground v.1.13,2013-02-15 14:50:00,
2013-02-15 09:55:00,40.3,32.0,30.00,SW,226,4.0,4.0,72,0.00,,,0.00,Wunderground v.1.13,2013-02-15 14:55:00,
2013-02-15 10:05:00,40.5,31.8,30.00,SSW,203,3.0,9.0,71,0.00,,,0.00,Wunderground v.1.13,2013-02-15 15:05:00,
2013-02-15 10:10:00,41.0,32.3,30.00,ESE,123,2.0,2.0,71,0.00,,,0.00,Wunderground v.1.13,2013-02-15 15:10:00,
2013-02-15 10:20:00,41.9,32.5,30.00,WSW,238,5.0,5.0,69,0.00,,,0.00,Wunderground v.1.13,2013-02-15 15:20:00,
2013-02-15 10:25:00,42.4,32.6,30.00,South,188,4.0,4.0,68,0.00,,,0.00,Wunderground v.1.13,2013-02-15 15:25:00,
2013-02-15 10:30:00,42.8,32.6,29.99,SSE,150,3.0,3.0,67,0.00,,,0.00,Wunderground v.1.13,2013-02-15 15:30:00,
2013-02-15 10:40:00,42.9,32.7,29.99,SE,140,4.0,9.0,67,0.00,,,0.00,Wunderground v.1.13,2013-02-15 15:40:00,
2013-02-15 10:45:00,43.0,33.2,30.00,SSW,199,5.0,7.0,68,0.00,,,0.00,Wunderground v.1.13,2013-02-15 15:45:00,
2013-02-15 10:50:00,43.4,33.2,29.99,SW,223,4.0,4.0,67,0.00,,,0.00,Wunderground v.1.13,2013-02-15 15:50:00,
2013-02-15 11:00:00,44.1,33.5,29.99,WSW,246,3.0,5.0,66,0.00,,,0.00,Wunderground v.1.13,2013-02-15 16:00:00,
2013-02-15 11:05:00,44.3,33.7,29.99,SSW,211,3.0,9.0,66,0.00,,,0.00,Wunderground v.1.13,2013-02-15 16:05:00,
2013-02-15 11:10:00,44.7,33.6,29.99,SE,146,4.0,4.0,65,0.00,,,0.00,Wunderground v.1.13,2013-02-15 16:10:00,
2013-02-15 11:20:00,45.0,33.9,29.99,South,189,4.0,9.0,65,0.00,,,0.00,Wunderground v.1.13,2013-02-15 16:20:00,
2013-02-15 11:25:00,45.4,33.9,29.98,SW,225,4.0,9.0,64,0.00,,,0.00,Wunderground v.1.13,2013-02-15 16:25:00,
2013-02-15 11:30:00,45.4,33.9,29.98,SSW,195,4.0,9.0,64,0.00,,,0.00,Wunderground v.1.13,2013-02-15 16:30:00,
2013-02-15 11:35:00,45.8,34.3,29.98,SW,225,3.0,3.0,64,0.00,,,0.00,Wunderground v.1.13,2013-02-15 16:35:00,
2013-02-15 11:45:00,46.1,34.2,29.97,SW,225,4.0,10.0,63,0.00,,,0.00,Wunderground v.1.13,2013-02-15 16:45:00,
2013-02-15 11:50:00,46.5,34.2,29.97,SW,234,5.0,5.0,62,0.00,,,0.00,Wunderground v.1.13,2013-02-15 16:50:00,
2013-02-15 11:55:00,46.7,34.4,29.97,SSE,153,5.0,5.0,62,0.00,,,0.00,Wunderground v.1.13,2013-02-15 16:55:00,
2013-02-15 12:00:00,46.7,34.4,29.97,SSE,155,3.0,9.0,62,0.00,,,0.00,Wunderground v.1.13,2013-02-15 17:00:00,
2013-02-15 12:10:00,46.9,34.6,29.96,SSE,155,4.0,4.0,62,0.00,,,0.00,Wunderground v.1.13,2013-02-15 17:10:00,
2013-02-15 12:15:00,47.0,34.6,29.96,SSE,161,4.0,4.0,62,0.00,,,0.00,Wunderground v.1.13,2013-02-15 17:15:00,
2013-02-15 12:25:00,47.3,34.9,29.95,SW,218,4.0,9.0,62,0.00,,,0.00,Wunderground v.1.13,2013-02-15 17:25:00,
2013-02-15 12:30:00,47.2,34.4,29.95,SSE,165,4.0,4.0,61,0.00,,,0.00,Wunderground v.1.13,2013-02-15 17:30:00,
2013-02-15 12:35:00,47.5,34.7,29.95,SW,229,5.0,9.0,61,0.00,,,0.00,Wunderground v.1.13,2013-02-15 17:35:00,
2013-02-15 12:40:00,47.7,34.5,29.95,WSW,254,5.0,9.0,60,0.00,,,0.00,Wunderground v.1.13,2013-02-15 17:40:00,
2013-02-15 12:50:00,48.1,34.9,29.94,SSW,198,5.0,9.0,60,0.00,,,0.00,Wunderground v.1.13,2013-02-15 17:50:00,
2013-02-15 12:55:00,48.3,35.0,29.94,SSE,159,5.0,9.0,60,0.00,,,0.00,Wunderground v.1.13,2013-02-15 17:55:00,
2013-02-15 13:00:00,48.3,34.6,29.94,SSW,210,5.0,9.0,59,0.00,,,0.00,Wunderground v.1.13,2013-02-15 18:00:00,
2013-02-15 13:10:00,48.7,35.0,29.93,SW,236,5.0,9.0,59,0.00,,,0.00,Wunderground v.1.13,2013-02-15 18:10:00,
2013-02-15 13:15:00,48.9,35.2,29.93,SSW,212,5.0,9.0,59,0.00,,,0.00,Wunderground v.1.13,2013-02-15 18:15:00,
2013-02-15 13:20:00,49.1,34.9,29.93,SW,232,5.0,9.0,58,0.00,,,0.00,Wunderground v.1.13,2013-02-15 18:20:00,
2013-02-15 13:25:00,49.1,34.9,29.93,SE,143,5.0,9.0,58,0.00,,,0.00,Wunderground v.1.13,2013-02-15 18:25:00,
2013-02-15 13:35:00,49.3,35.1,29.93,SE,138,4.0,10.0,58,0.00,,,0.00,Wunderground v.1.13,2013-02-15 18:35:00,
2013-02-15 13:40:00,49.3,34.7,29.93,South,186,4.0,4.0,57,0.00,,,0.00,Wunderground v.1.13,2013-02-15 18:40:00,
2013-02-15 13:45:00,49.2,35.0,29.93,SSW,211,5.0,5.0,58,0.00,,,0.00,Wunderground v.1.13,2013-02-15 18:45:00,
2013-02-15 13:55:00,50.0,34.9,29.93,WSW,254,5.0,5.0,56,0.00,,,0.00,Wunderground v.1.13,2013-02-15 18:55:00,
2013-02-15 14:00:00,50.0,34.9,29.93,South,175,4.0,4.0,56,0.00,,,0.00,Wunderground v.1.13,2013-02-15 19:00:00,
2013-02-15 14:05:00,49.7,34.6,29.92,South,175,4.0,9.0,56,0.00,,,0.00,Wunderground v.1.13,2013-02-15 19:05:00,
2013-02-15 14:15:00,50.4,34.8,29.92,SSW,211,5.0,12.0,55,0.00,,,0.00,Wunderground v.1.13,2013-02-15 19:15:00,
2013-02-15 14:20:00,50.3,34.7,29.92,SSE,153,5.0,5.0,55,0.00,,,0.00,Wunderground v.1.13,2013-02-15 19:20:00,
2013-02-15 14:25:00,50.2,34.6,29.92,SW,223,5.0,5.0,55,0.00,,,0.00,Wunderground v.1.13,2013-02-15 19:25:00,
2013-02-15 14:30:00,50.3,34.7,29.92,WSW,255,5.0,12.0,55,0.00,,,0.00,Wunderground v.1.13,2013-02-15 19:30:00,
2013-02-15 14:40:00,50.5,34.5,29.91,SSE,163,6.0,6.0,54,0.00,,,0.00,Wunderground v.1.13,2013-02-15 19:40:00,
2013-02-15 14:45:00,50.5,34.5,29.92,SW,221,6.0,9.0,54,0.00,,,0.00,Wunderground v.1.13,2013-02-15 19:45:00,
2013-02-15 14:50:00,50.7,34.6,29.91,West,275,5.0,9.0,54,0.00,,,0.00,Wunderground v.1.13,2013-02-15 19:50:00,
2013-02-15 15:00:00,50.8,34.3,29.91,SW,218,5.0,5.0,53,0.00,,,0.00,Wunderground v.1.13,2013-02-15 20:00:00,
2013-02-15 15:05:00,50.5,34.5,29.91,SW,233,5.0,9.0,54,0.00,,,0.00,Wunderground v.1.13,2013-02-15 20:05:00,
2013-02-15 15:10:00,50.6,34.1,29.91,SSW,206,5.0,9.0,53,0.00,,,0.00,Wunderground v.1.13,2013-02-15 20:10:00,
2013-02-15 15:20:00,50.2,33.7,29.91,SSW,205,7.0,7.0,53,0.00,,,0.00,Wunderground v.1.13,2013-02-15 20:20:00,
2013-02-15 15:25:00,50.0,34.0,29.91,SSW,194,7.0,7.0,54,0.00,,,0.00,Wunderground v.1.13,2013-02-15 20:25:00,
2013-02-15 15:30:00,50.0,34.0,29.91,SW,221,6.0,6.0,54,0.00,,,0.00,Wunderground v.1.13,2013-02-15 20:30:00,
2013-02-15 15:40:00,50.3,33.8,29.91,SSW,210,3.0,9.0,53,0.00,,,0.00,Wunderground v.1.13,2013-02-15 20:40:00,
2013-02-15 15:45:00,49.9,33.9,29.91,SSW,213,4.0,9.0,54,0.00,,,0.00,Wunderground v.1.13,2013-02-15 20:45:00,
2013-02-15 15:50:00,49.8,33.8,29.91,SSW,209,4.0,9.0,54,0.00,,,0.00,Wunderground v.1.13,2013-02-15 20:50:00,
2013-02-15 15:55:00,50.0,34.0,29.91,SW,236,6.0,6.0,54,0.00,,,0.00,Wunderground v.1.13,2013-02-15 20:55:00,
2013-02-15 16:05:00,49.7,33.7,29.91,South,179,4.0,4.0,54,0.00,,,0.00,Wunderground v.1.13,2013-02-15 21:05:00,
2013-02-15 16:10:00,49.6,34.1,29.91,SSW,210,4.0,9.0,55,0.00,,,0.00,Wunderground v.1.13,2013-02-15 21:10:00,
2013-02-15 16:15:00,49.5,34.0,29.91,SSE,148,4.0,4.0,55,0.00,,,0.00,Wunderground v.1.13,2013-02-15 21:15:00,
2013-02-15 16:20:00,49.3,33.8,29.91,SW,225,4.0,4.0,55,0.00,,,0.00,Wunderground v.1.13,2013-02-15 21:20:00,
2013-02-15 16:30:00,49.1,34.1,29.91,South,171,3.0,3.0,56,0.00,,,0.00,Wunderground v.1.13,2013-02-15 21:30:00,
2013-02-15 16:35:00,49.2,34.2,29.91,South,182,3.0,9.0,56,0.00,,,0.00,Wunderground v.1.13,2013-02-15 21:35:00,
2013-02-15 16:40:00,49.2,33.7,29.91,SSW,209,3.0,3.0,55,0.00,,,0.00,Wunderground v.1.13,2013-02-15 21:40:00,
2013-02-15 16:50:00,48.9,33.9,29.91,South,183,2.0,2.0,56,0.00,,,0.00,Wunderground v.1.13,2013-02-15 21:50:00,
2013-02-15 16:55:00,48.6,33.6,29.91,SSE,165,2.0,9.0,56,0.00,,,0.00,Wunderground v.1.13,2013-02-15 21:55:00,
2013-02-15 17:00:00,48.3,33.3,29.91,South,190,2.0,2.0,56,0.00,,,0.00,Wunderground v.1.13,2013-02-15 22:00:00,
2013-02-15 17:10:00,47.7,33.2,29.91,South,175,1.0,9.0,57,0.00,,,0.00,Wunderground v.1.13,2013-02-15 22:10:00,
2013-02-15 17:15:00,47.4,33.4,29.92,South,186,1.0,1.0,58,0.00,,,0.00,Wunderground v.1.13,2013-02-15 22:15:00,
2013-02-15 17:20:00,47.1,33.1,29.92,South,184,1.0,9.0,58,0.00,,,0.00,Wunderground v.1.13,2013-02-15 22:20:00,
2013-02-15 17:30:00,46.5,32.9,29.92,South,173,1.0,9.0,59,0.00,,,0.00,Wunderground v.1.13,2013-02-15 22:30:00,
2013-02-15 17:35:00,46.2,33.1,29.92,South,188,1.0,9.0,60,0.00,,,0.00,Wunderground v.1.13,2013-02-15 22:35:00,
2013-02-15 17:40:00,45.9,33.2,29.92,South,187,1.0,1.0,61,0.00,,,0.00,Wunderground v.1.13,2013-02-15 22:40:00,
2013-02-15 17:50:00,45.4,33.1,29.92,SSW,200,1.0,9.0,62,0.00,,,0.00,Wunderground v.1.13,2013-02-15 22:50:00,
2013-02-15 17:55:00,45.2,32.9,29.92,SSW,198,1.0,1.0,62,0.00,,,0.00,Wunderground v.1.13,2013-02-15 22:55:00,
2013-02-15 18:00:00,44.9,33.1,29.93,SSW,192,1.0,1.0,63,0.00,,,0.00,Wunderground v.1.13,2013-02-15 23:00:00,
2013-02-15 18:10:00,44.4,33.0,29.93,SSW,194,0.0,9.0,64,0.00,,,0.00,Wunderground v.1.13,2013-02-15 23:10:00,
2013-02-15 18:15:00,44.2,32.8,29.93,SSW,207,0.0,9.0,64,0.00,,,0.00,Wunderground v.1.13,2013-02-15 23:15:00,
2013-02-15 18:20:00,44.0,33.0,29.94,SSW,207,1.0,1.0,65,0.00,,,0.00,Wunderground v.1.13,2013-02-15 23:20:00,
2013-02-15 18:30:00,43.6,33.0,29.94,SSW,207,0.0,9.0,66,0.00,,,0.00,Wunderground v.1.13,2013-02-15 23:30:00,
2013-02-15 18:35:00,43.4,32.8,29.94,SW,218,0.0,9.0,66,0.00,,,0.00,Wunderground v.1.13,2013-02-15 23:35:00,
2013-02-15 18:40:00,43.1,32.9,29.94,SW,218,1.0,1.0,67,0.00,,,0.00,Wunderground v.1.13,2013-02-15 23:40:00,
2013-02-15 18:45:00,42.9,32.7,29.94,SW,216,0.0,9.0,67,0.00,,,0.00,Wunderground v.1.13,2013-02-15 23:45:00,
2013-02-15 18:55:00,42.6,32.8,29.94,SW,214,0.0,9.0,68,0.00,,,0.00,Wunderground v.1.13,2013-02-15 23:55:00,
2013-02-15 19:00:00,42.5,32.7,29.94,SSW,207,0.0,9.0,68,0.00,,,0.00,Wunderground v.1.13,2013-02-16 00:00:00,
2013-02-15 19:05:00,42.3,32.8,29.94,SSW,208,1.0,9.0,69,0.00,,,0.00,Wunderground v.1.13,2013-02-16 00:05:00,
2013-02-15 19:15:00,42.1,32.7,29.94,SSW,197,1.0,9.0,69,0.00,,,0.00,Wunderground v.1.13,2013-02-16 00:15:00,
2013-02-15 19:20:00,42.0,32.6,29.93,WSW,242,1.0,1.0,69,0.00,,,0.00,Wunderground v.1.13,2013-02-16 00:20:00,
2013-02-15 19:25:00,41.8,32.7,29.94,WSW,242,1.0,1.0,70,0.00,,,0.00,Wunderground v.1.13,2013-02-16 00:25:00,
2013-02-15 19:35:00,41.6,32.5,29.94,WSW,242,0.0,9.0,70,0.00,,,0.00,Wunderground v.1.13,2013-02-16 00:35:00,
2013-02-15 19:40:00,41.5,32.4,29.94,SW,233,1.0,1.0,70,0.00,,,0.00,Wunderground v.1.13,2013-02-16 00:40:00,
2013-02-15 19:45:00,41.4,32.7,29.94,SW,234,1.0,1.0,71,0.00,,,0.00,Wunderground v.1.13,2013-02-16 00:45:00,
2013-02-15 19:55:00,41.1,32.4,29.94,SW,227,1.0,9.0,71,0.00,,,0.00,Wunderground v.1.13,2013-02-16 00:55:00,
2013-02-15 20:00:00,41.0,32.7,29.94,SW,227,1.0,1.0,72,0.00,,,0.00,Wunderground v.1.13,2013-02-16 01:00:00,
2013-02-15 20:05:00,40.9,32.6,29.94,SW,227,0.0,9.0,72,0.00,,,0.00,Wunderground v.1.13,2013-02-16 01:05:00,
2013-02-15 20:10:00,40.7,32.4,29.94,SW,227,0.0,9.0,72,0.00,,,0.00,Wunderground v.1.13,2013-02-16 01:10:00,
2013-02-15 20:20:00,40.3,32.0,29.94,SW,228,0.0,9.0,72,0.00,,,0.00,Wunderground v.1.13,2013-02-16 01:20:00,
2013-02-15 20:25:00,40.1,31.8,29.95,SW,234,0.0,9.0,72,0.00,,,0.00,Wunderground v.1.13,2013-02-16 01:25:00,
2013-02-15 20:30:00,39.5,31.2,29.95,WNW,298,0.0,9.0,72,0.00,,,0.00,Wunderground v.1.13,2013-02-16 01:30:00,
2013-02-15 20:35:00,39.0,31.1,29.95,West,280,1.0,1.0,73,0.00,,,0.00,Wunderground v.1.13,2013-02-16 01:35:00,
2013-02-15 20:45:00,38.4,31.2,29.95,West,280,0.0,9.0,75,0.00,,,0.00,Wunderground v.1.13,2013-02-16 01:45:00,
2013-02-15 20:50:00,38.2,31.0,29.95,West,280,0.0,9.0,75,0.00,,,0.00,Wunderground v.1.13,2013-02-16 01:50:00,
2013-02-15 21:00:00,37.9,31.0,29.96,West,280,0.0,9.0,76,0.00,,,0.00,Wunderground v.1.13,2013-02-16 02:00:00,
2013-02-15 21:05:00,37.8,31.2,29.96,West,280,0.0,9.0,77,0.00,,,0.00,Wunderground v.1.13,2013-02-16 02:05:00,
2013-02-15 21:10:00,37.7,31.1,29.96,West,280,0.0,9.0,77,0.00,,,0.00,Wunderground v.1.13,2013-02-16 02:10:00,
2013-02-15 21:15:00,37.5,30.9,29.96,West,280,0.0,9.0,77,0.00,,,0.00,Wunderground v.1.13,2013-02-16 02:15:00,
2013-02-15 21:25:00,37.3,30.7,29.96,West,280,0.0,9.0,77,0.00,,,0.00,Wunderground v.1.13,2013-02-16 02:25:00,
2013-02-15 21:30:00,37.1,30.6,29.96,West,280,0.0,9.0,77,0.00,,,0.00,Wunderground v.1.13,2013-02-16 02:30:00,
2013-02-15 21:35:00,37.0,30.8,29.96,West,280,0.0,9.0,78,0.00,,,0.00,Wunderground v.1.13,2013-02-16 02:35:00,
2013-02-15 21:45:00,36.9,30.7,29.95,West,280,0.0,9.0,78,0.00,,,0.00,Wunderground v.1.13,2013-02-16 02:45:00,
2013-02-15 21:50:00,36.8,30.6,29.95,West,280,0.0,9.0,78,0.00,,,0.00,Wunderground v.1.13,2013-02-16 02:50:00,
2013-02-15 21:55:00,36.7,30.8,29.95,West,280,0.0,9.0,79,0.00,,,0.00,Wunderground v.1.13,2013-02-16 02:55:00,
2013-02-15 22:00:00,36.6,30.7,29.94,West,280,0.0,9.0,79,0.00,,,0.00,Wunderground v.1.13,2013-02-16 03:00:00,
2013-02-15 22:10:00,36.3,30.4,29.95,West,280,0.0,9.0,79,0.00,,,0.00,Wunderground v.1.13,2013-02-16 03:10:00,
2013-02-15 22:15:00,36.1,30.2,29.95,West,280,0.0,9.0,79,0.00,,,0.00,Wunderground v.1.13,2013-02-16 03:15:00,
2013-02-15 22:20:00,35.9,30.0,29.95,West,280,0.0,9.0,79,0.00,,,0.00,Wunderground v.1.13,2013-02-16 03:20:00,
2013-02-15 22:30:00,35.4,29.5,29.96,West,280,0.0,9.0,79,0.00,,,0.00,Wunderground v.1.13,2013-02-16 03:30:00,
2013-02-15 22:35:00,35.1,29.6,29.96,West,280,0.0,9.0,80,0.00,,,0.00,Wunderground v.1.13,2013-02-16 03:35:00,
2013-02-15 22:40:00,34.9,29.4,29.95,West,280,0.0,9.0,80,0.00,,,0.00,Wunderground v.1.13,2013-02-16 03:40:00,
2013-02-15 22:50:00,34.4,29.2,29.95,West,280,0.0,9.0,81,0.00,,,0.00,Wunderground v.1.13,2013-02-16 03:50:00,
2013-02-15 22:55:00,34.2,29.0,29.95,West,280,0.0,9.0,81,0.00,,,0.00,Wunderground v.1.13,2013-02-16 03:55:00,
2013-02-15 23:00:00,33.9,29.0,29.95,West,280,0.0,9.0,82,0.00,,,0.00,Wunderground v.1.13,2013-02-16 04:00:00,
2013-02-15 23:05:00,33.8,28.9,29.94,West,280,0.0,9.0,82,0.00,,,0.00,Wunderground v.1.13,2013-02-16 04:05:00,
2013-02-15 23:15:00,33.3,28.1,29.94,West,280,0.0,9.0,81,0.00,,,0.00,Wunderground v.1.13,2013-02-16 04:15:00,
2013-02-15 23:20:00,33.0,28.1,29.94,West,280,0.0,9.0,82,0.00,,,0.00,Wunderground v.1.13,2013-02-16 04:20:00,
2013-02-15 23:25:00,32.8,27.6,29.94,West,280,0.0,9.0,81,0.00,,,0.00,Wunderground v.1.13,2013-02-16 04:25:00,
2013-02-15 23:35:00,32.3,27.7,29.94,West,280,0.0,9.0,83,0.00,,,0.00,Wunderground v.1.13,2013-02-16 04:35:00,
2013-02-15 23:40:00,32.1,27.5,29.94,West,280,0.0,9.0,83,0.00,,,0.00,Wunderground v.1.13,2013-02-16 04:40:00,
2013-02-15 23:45:00,32.0,27.4,29.94,West,280,0.0,9.0,83,0.00,,,0.00,Wunderground v.1.13,2013-02-16 04:45:00,
2013-02-15 23:55:00,31.7,27.4,29.95,West,280,0.0,9.0,84,0.00,,,0.00,Wunderground v.1.13,2013-02-16 04:55:00,